Time,TemperatureF,DewpointF,PressureIn,WindDirection,WindDirectionDegrees,WindSpeedMPH,WindSpeedGustMPH,Humidity,HourlyPrecipIn,Conditions,Clouds,dailyrainin,SoftwareType,DateUTC
2014-12-17 00:22:00,12.0,5.0,30.33,NNW,335,0.0,-999.0,74,-99.99,,,-99.99,,2014-12-17 06:22:00,
2014-12-17 00:42:00,12.0,5.0,30.32,NNW,335,0.0,-999.0,74,-99.99,,,-99.99,,2014-12-17 06:42:00,
2014-12-17 00:52:00,12.0,6.0,30.32,NNW,342,0.0,-999.0,75,-99.99,,,-99.99,,2014-12-17 06:52:00,
2014-12-17 01:12:00,11.0,5.0,30.32,NNW,342,0.0,-999.0,75,-99.99,,,-99.99,,2014-12-17 07:12:00,
2014-12-17 01:23:00,12.0,6.0,30.32,NNW,330,0.0,-999.0,75,-99.99,,,-99.99,,2014-12-17 07:23:00,
2014-12-17 01:42:00,12.0,6.0,30.32,NW,315,0.0,-999.0,76,-99.99,,,-99.99,,2014-12-17 07:42:00,
2014-12-17 01:52:00,11.0,5.0,30.33,NW,312,0.0,-999.0,75,-99.99,,,-99.99,,2014-12-17 07:52:00,
2014-12-17 02:22:00,11.0,5.0,30.33,NW,326,0.0,-999.0,75,-99.99,,,-99.99,,2014-12-17 08:22:00,
2014-12-17 02:42:00,11.0,5.0,30.33,NW,326,0.0,-999.0,75,-99.99,,,-99.99,,2014-12-17 08:42:00,
2014-12-17 08:22:00,8.0,2.0,30.37,NW,313,0.0,-999.0,76,-99.99,,,-99.99,,2014-12-17 14:22:00,
2014-12-17 08:42:00,8.0,2.0,30.37,NW,313,0.0,-999.0,76,-99.99,,,-99.99,,2014-12-17 14:42:00,
2014-12-17 08:52:00,9.0,3.0,30.36,NW,320,0.0,-999.0,77,-99.99,,,-99.99,,2014-12-17 14:52:00,
2014-12-17 09:22:00,9.0,3.0,30.37,NW,326,0.0,-999.0,77,-99.99,,,-99.99,,2014-12-17 15:22:00,
2014-12-17 15:54:00,20.0,11.0,30.32,North,359,3.0,-999.0,68,-99.99,,,-99.99,,2014-12-17 21:54:00,
2014-12-17 16:13:00,20.0,11.0,30.32,North,0,1.0,-999.0,68,-99.99,,,-99.99,,2014-12-17 22:13:00,
2014-12-17 16:23:00,20.0,11.0,30.32,NNW,343,2.0,-999.0,68,-99.99,,,-99.99,,2014-12-17 22:23:00,
2014-12-17 16:43:00,20.0,11.0,30.32,NNW,329,4.0,-999.0,68,-99.99,,,-99.99,,2014-12-17 22:43:00,
2014-12-17 16:53:00,20.0,11.0,30.32,NW,325,2.0,-999.0,69,-99.99,,,-99.99,,2014-12-17 22:53:00,
2014-12-17 17:12:00,19.0,11.0,30.33,North,355,2.0,-999.0,70,-99.99,,,-99.99,,2014-12-17 23:12:00,
2014-12-17 17:22:00,19.0,11.0,30.34,NNW,342,0.0,-999.0,70,-99.99,,,-99.99,,2014-12-17 23:22:00,
2014-12-17 17:42:00,19.0,11.0,30.34,NNW,342,2.0,-999.0,71,-99.99,,,-99.99,,2014-12-17 23:42:00,
2014-12-17 17:53:00,18.0,11.0,30.34,NNW,342,3.0,-999.0,72,-99.99,,,-99.99,,2014-12-17 23:53:00,
2014-12-17 18:22:00,17.0,10.0,30.34,NNW,341,2.0,-999.0,73,-99.99,,,-99.99,,2014-12-18 00:22:00,
2014-12-17 18:42:00,17.0,10.0,30.34,NNW,341,0.0,-999.0,74,-99.99,,,-99.99,,2014-12-18 00:42:00,
2014-12-17 18:52:00,16.0,10.0,30.34,NNW,342,0.0,-999.0,76,-99.99,,,-99.99,,2014-12-18 00:52:00,
2014-12-17 19:12:00,16.0,10.0,30.34,NNW,341,0.0,-999.0,76,-99.99,,,-99.99,,2014-12-18 01:12:00,
2014-12-17 19:22:00,15.0,9.0,30.35,NNW,341,0.0,-999.0,77,-99.99,,,-99.99,,2014-12-18 01:22:00,